Regional Weather Roundup
Issued by NWS

Home | Current Version | Previous Version | Graphics & Text | Print | Product List | Glossary On
Versions: 1 2 3 4 5 6 7 8 9 10 11 12 13 14 15 16 17 18 19 20 21 22 23 24 25 26 27 28 29 30 31 32 33 34 35 36 37 38 39 40 41 42 43 44 45 46 47 48 49 50
000
ASUS43 KIND 300509
RWRIN

WEATHER ROUNDUP FOR INDIANA
NATIONAL WEATHER SERVICE INDIANAPOLIS IN
100 AM EDT SAT AUG 30 2014

NOTE: "FAIR" INDICATES FEW OR NO CLOUDS BELOW 12,000 FEET WITH NO
SIGNIFICANT WEATHER AND/OR OBSTRUCTIONS TO VISIBILITY.

* - STATION DOES NOT REPORT WEATHER SUCH AS PRECIPITATION OR FOG.

+ - STATION NOT QUALITY CONTROLLED BY THE NATIONAL WEATHER SERVICE.
    USE DATA WITH CAUTION...ESPECIALLY DEWPOINT AND RELATIVE
    HUMIDITY OBSERVATIONS.

INZ001>003-010>013-019-020-300600-
NORTHWEST INDIANA

CITY           SKY/WX    TMP DP  RH WIND       PRES   REMARKS
GARY /AIRPORT/ MOCLDY    74  69  83 SE9       29.90F
KNOX *+        PTCLDY    69  66  90 SE6       29.94S
LA PORTE +     PTCLDY    68  68 100 SE5       29.95S
MICHIGAN CITY+ PTCLDY    70  68  94 S5        29.93S
MONTICELLO +   CLEAR     71  71  98 SE3       29.95S
RENSSELAER +   CLEAR     70  70 100 SE5       29.94S FOG
VALPARAISO     PTCLDY    70  67  90 SE7       29.94F

$$

LMZ046-743>745-300600-
SOUTHERN LAKE MICHIGAN

STATION/POSITION TIME  TEMP WIND        PRES
                       AIR  DIR/SP/G
                 (UTC) (F)  (DEG/KT/KT) (MB)
MICHIGAN CITY    0500   72  130/ 12/ 17   N/A

$$

INZ004-005-014>016-021>024-300600-
NORTH CENTRAL INDIANA

CITY           SKY/WX    TMP DP  RH WIND       PRES   REMARKS
GOSHEN         CLOUDY    74  68  81 SE7       29.97F
LOGANSPORT +   CLEAR     72  68  88 SE7       29.97S
PERU/GRISSOM   MOCLDY    73  73 100 SE6       29.98S
ROCHESTER +    PTCLDY    75  72  88 SE5       29.97F
SOUTH BEND     MOCLDY    71  68  90 SE7       29.95F
WARSAW +       MOCLDY    73  68  83 SE5       29.97F

$$

INZ006>009-017-018-025>027-300600-
NORTHEAST INDIANA

CITY           SKY/WX    TMP DP  RH WIND       PRES   REMARKS
ANGOLA *+      CLEAR     72  64  78 S6        30.00F
AUBURN +       MOCLDY    72  64  78 CALM      30.01S
FORT WAYNE     MOCLDY    72  66  81 SE8       30.01S
HUNTINGTON +   MOCLDY    73  67  83 S7        30.00S

$$

INZ028-029-035-036-043>045-051>053-300600-
WEST CENTRAL INDIANA

CITY           SKY/WX    TMP DP  RH WIND       PRES   REMARKS
GREENCASTLE +  CLEAR     70  66  88 S3        30.00R
LAFAYETTE      CLEAR     73  70  90 S6        29.95S
TERRE HAUTE    CLEAR     73  69  87 S6        29.97R

$$

INZ030>032-037>040-046>048-054>057-064-065-300600-
CENTRAL INDIANA

CITY           SKY/WX    TMP DP  RH WIND       PRES   REMARKS
CP ATTERBURY + CLEAR     72  63  73 S3        30.02R
FRANKFORT +    CLEAR    N/A N/A N/A CALM      29.99S
INDIANAPOLIS   PTCLDY    75  64  68 S10       29.99R
-EAGLE CREEK   CLEAR     76  63  64 S3        29.99S
KOKOMO *+      PTCLDY    72  70  94 S9        29.98F
MARION +       MOCLDY    73  66  81 S6        30.01R
MT COMFORT *+  CLEAR     72  72 100 SE6       30.02S
SHELBYVILLE    CLEAR     73  65  75 S8        30.01R
ZIONSVILLE +   CLEAR     74  63  67 S6        30.00S

$$

INZ033-034-041-042-049-050-058-059-300600-
EAST CENTRAL INDIANA

CITY           SKY/WX    TMP DP  RH WIND       PRES   REMARKS
MUNCIE         MOCLDY    76  66  71 S8        30.02R

$$

INZ060-061-067>069-081>083-085>088-300600-
SOUTHWEST INDIANA

CITY           SKY/WX    TMP DP  RH WIND       PRES   REMARKS
EVANSVILLE     MOCLDY    80  64  58 S7        29.99S
WASHINGTON +   CLEAR     73  69  88 S6        29.98S

$$

INZ062-063-066-070>080-084-089>092-300600-
SOUTH CENTRAL AND SOUTHEAST INDIANA

CITY           SKY/WX    TMP DP  RH WIND       PRES   REMARKS
BLOOMINGTON    CLEAR     74  65  73 S6        30.01R

$$




USA.gov is the U.S. government's official web portal to all federal, state and local government web resources and services.